Location: Frizzleburg
(41.0764°N, 80.4548°W)
Time: 21:24:44
(UTC+00:00)

Cosmos 2298 Rocket - Pass Details

Date: 17 November 2019
Orbit: 777 x 783 km, 74.0° (Epoch: 06 December)

Event Time Altitude Azimuth Distance (km) Brightness Sun altitude
Rises 11:19:06 0° 219° (SW) 3,251 7.0 -10.1°
Reaches altitude 10° 11:21:37 10° 227° (SW) 2,326 6.2 -9.6°
Maximum altitude 11:26:33 39° 296° (WNW) 1,149 4.5 -8.7°
Drops below altitude 10° 11:31:32 10° 5° (N) 2,337 6.4 -7.9°
Sets 11:34:04 0° 13° (NNE) 3,268 7.2 -7.4°
